Weather History for Parsons, KS

Change the Weather History Date:

Monday, February 18, 2013

  Actual Average Record
Temperature  
Mean Temperature 44 °F -  
Max Temperature 60 °F 48 °F 71 °F (1976)
Min Temperature 28 °F 28 °F -7 °F (1993)
Degree Days  
Heating Degree Days 21    
Moisture  
Dew Point 34 °F    
Average Humidity 58    
Maximum Humidity 75    
Minimum Humidity 41    
Precipitation  
Precipitation 0.00 in - - ()
Sea Level Pressure  
Sea Level Pressure 29.76 in    
Wind  
Wind Speed 16 mph (WSW)    
Max Wind Speed 28 mph    
Max Gust Speed 41 mph    
Visibility 10 miles    
Events      
Averages and records for this station are not official NWS values.
T = Trace of Precipitation, MM = Missing Value Source: NWS Daily Summary

Daily Weather History Graph

Daily Weather History Graph

Search for Another Location

Airport:

Trip Planner

Search our weather history database for the weather conditions in past years. The results will help you decide how hot, cold, wet, or windy it might be!

Date:

Astronomy

Feb. 18, 2013 Rise Set
Actual Time 7:07 AM CST 6:05 PM CST
Civil Twilight 6:40 AM CST 6:31 PM CST
Nautical Twilight 6:10 AM CST 7:02 PM CST
Astronomical Twilight 5:39 AM CST 7:32 PM CST
Moon 11:55 AM CST (2/18) 1:44 AM CST (2/18)
Length of Visible Light 11h 51m
Length of Day
10h 58m
First Quarter, 58% of the Moon is Illuminated
Feb 18
First Quarter
Feb 25
Full
Mar 4
Last Quarter
Mar 11
New
Mar 19
First Quarter

Hourly Weather History & Observations

Time (CST) Temp. Windchill Dew Point Humidity Pressure Visibility Wind Dir Wind Speed Gust Speed Precip Events Conditions
12:52 AM 55.0 °F - 32.0 °F 42% 29.70 in 10.0 mi South 15.0 mph 24.2 mph N/A   Clear
1:52 AM 54.0 °F - 33.1 °F 45% 29.67 in 10.0 mi South 12.7 mph 25.3 mph N/A   Clear
2:52 AM 54.0 °F - 34.0 °F 47% 29.64 in 10.0 mi South 13.8 mph 25.3 mph N/A   Clear
3:52 AM 53.1 °F - 37.0 °F 55% 29.62 in 10.0 mi South 18.4 mph 25.3 mph N/A   Clear
4:52 AM 53.1 °F - 41.0 °F 64% 29.61 in 10.0 mi South 17.3 mph 26.5 mph N/A   Clear
5:52 AM 53.1 °F - 42.1 °F 66% 29.60 in 10.0 mi South 18.4 mph 33.4 mph N/A   Overcast
6:52 AM 52.0 °F - 43.0 °F 71% 29.58 in 10.0 mi South 15.0 mph 26.5 mph N/A   Scattered Clouds
8:05 AM 55.4 °F - 44.6 °F 67% 29.58 in 10.0 mi South 17.3 mph 31.1 mph N/A   Overcast
8:52 AM 55.9 °F - 46.0 °F 69% 29.57 in 10.0 mi South 21.9 mph 33.4 mph N/A   Overcast
9:52 AM 57.9 °F - 46.9 °F 67% 29.57 in 10.0 mi South 19.6 mph 33.4 mph N/A   Overcast
10:52 AM 60.1 °F - 45.0 °F 57% 29.57 in 10.0 mi SW 18.4 mph 34.5 mph N/A   Overcast
11:52 AM 60.1 °F - 36.0 °F 41% 29.60 in 10.0 mi WSW 24.2 mph 34.5 mph N/A   Scattered Clouds
12:52 PM 55.9 °F - 35.1 °F 45% 29.65 in 10.0 mi WNW 27.6 mph 39.1 mph N/A   Clear
1:52 PM 51.1 °F - 33.1 °F 50% 29.71 in 10.0 mi NNW 25.3 mph 41.4 mph N/A   Overcast
2:52 PM 53.1 °F - 32.0 °F 45% 29.75 in 10.0 mi North 24.2 mph 35.7 mph N/A   Partly Cloudy
3:52 PM 50.0 °F - 30.9 °F 48% 29.81 in 10.0 mi NW 24.2 mph 35.7 mph N/A   Scattered Clouds
4:52 PM 46.0 °F 37.6 °F 30.9 °F 56% 29.88 in 10.0 mi NW 24.2 mph 34.5 mph N/A   Mostly Cloudy
5:52 PM 43.0 °F 36.4 °F 28.0 °F 56% 29.93 in 10.0 mi NNW 12.7 mph 25.3 mph N/A   Partly Cloudy
7:52 PM 37.0 °F 31.6 °F 26.1 °F 65% 30.04 in 10.0 mi North 6.9 mph - N/A   Clear
8:52 PM 33.1 °F 28.7 °F 23.0 °F 66% 30.07 in 10.0 mi NNW 4.6 mph - N/A   Clear
9:52 PM 28.9 °F - 21.9 °F 75% 30.12 in 10.0 mi Calm Calm - N/A   Clear
10:52 PM 30.9 °F 25.2 °F 21.9 °F 69% 30.15 in 10.0 mi North 5.8 mph - N/A   Clear
11:52 PM 28.9 °F 25.2 °F 19.9 °F 69% 30.17 in 10.0 mi North 3.5 mph - N/A   Clear